User: anonymous   Login
Location: Oshawa
(43.9000°N, 78.8670°W)
Time: 10:05:02
(UTC-04:00)
Language:

Cosmos 1500 - Orbit

View from above orbital plane
View from above orbital plane
View from above satellite
View from above satellite

Ground track
Ground track

The orbit data is extracted from the following two-line orbital elements,

1 14372U 83099A   17178.90634662 +.00000428 +00000-0 +19680-4 0  9998
2 14372 082.5149 332.9936 0016799 052.5418 100.7203 15.17456990839123
Epoch (UTC): 27 June 2017 21:45:08
Eccentricity: 0.0016799
inclination: 82.5149°
perigee height: 502 km
apogee height: 525 km
right ascension of ascending node: 332.9936°
argument of perigee: 52.5418°
revolutions per day: 15.17456990
mean anomaly at epoch: 100.7203°
orbit number at epoch: 83912

The dashed part of the orbit path shows where the satellite is in the earth's shadow,  

DLR